Flag for U.S.A. Weather past 2 weeks in Spartanburg, South Carolina, U.S.A.

Now
41 °F

Sunny.


Feels Like: 33 °F
Forecast: 33 / 49 °F
Wind: 15 mph from Northwest

Location: Spartanburg Memorial

Current Time: Jan 30, 2015 at 8:07:30 AM

Latest Report: Jan 30, 2015 at 7:35 AM


Visibility: 10 mi

Pressure: 30.12 "Hg

Humidity: 57%

Dew point: 27 °F

Location of SpartanburgLocation

Historic Weather in Spartanburg — Graph

°F

Spartanburg temperature yesterday

Maximum temperature yesterday: 54 °F (at 3:15 PM)
Minimum temperature yesterday: 30 °F (at 5:15 AM)
Average temperature yesterday: 42 °F

Past Weeks' High & Low Weather Summary

 TemperatureHumidityPressure
High70 °F (Jan 20, 2:15 PM)100% (Jan 15, 11:15 PM)30.33 "Hg (Jan 15, 11:15 PM)
Low27 °F (Jan 28, 7:35 AM)15% (Jan 19, 3:15 PM)29.60 "Hg (Jan 24, 5:35 AM)
Average45 °F54%30.02 "Hg
* Reported Jan 15 7:15 AM — Jan 30 7:15 AM, Spartanburg, Weather by CustomWeather, © 2014

Note: Actual official high and low records may vary slightly from our data, if they occured in-between our weather recording intervals... More about our weather records

Advertising

Spartanburg weather history for previous 24 hours

 ConditionsComfort  
Time TempWeatherWind HumidityBarometerVisibility
7:15 AM
Jan 30
41 °FClear.8 mph61%30.11 "Hg10 mi
6:35 AM43 °FClear.8 mph57%30.10 "Hg10 mi
6:15 AM43 °FClear.14 mph57%30.07 "Hg10 mi
5:35 AM43 °FClear.15 mph61%30.05 "Hg10 mi
5:15 AM45 °FClear.16 mph57%30.05 "Hg10 mi
4:35 AM45 °FClear.14 mph57%30.03 "Hg10 mi
4:15 AM46 °FClear.10 mph57%30.02 "Hg10 mi
3:35 AM48 °FPassing clouds.3 mph54%30.01 "Hg10 mi
3:15 AM50 °FPassing clouds.8 mph50%30.02 "Hg10 mi
2:35 AM46 °FClear.5 mph53%30.02 "Hg10 mi
2:15 AM46 °FPassing clouds.8 mph53%30.00 "Hg10 mi
1:35 AM46 °FClear.6 mph53%30.01 "Hg10 mi
1:15 AM48 °FClear.6 mph50%30.00 "Hg10 mi
12:35 AM48 °FClear.6 mph46%30.02 "Hg10 mi
12:15 AM48 °FClear.6 mph46%30.03 "Hg10 mi
11:35 PM
Jan 29
48 °FClear.8 mph46%30.05 "Hg10 mi
10:35 PM48 °FClear.6 mph43%30.07 "Hg10 mi
10:15 PM48 °FClear.5 mph43%30.08 "Hg10 mi
9:35 PM48 °FClear.6 mph43%30.09 "Hg10 mi
9:15 PM46 °FClear.8 mph46%30.09 "Hg10 mi
8:35 PM46 °FClear.6 mph43%30.10 "Hg10 mi
8:15 PM46 °FClear.5 mph43%30.10 "Hg10 mi
7:35 PM48 °FClear.5 mph37%30.10 "Hg10 mi
7:15 PM50 °FClear.8 mph35%30.10 "Hg10 mi
6:35 PM50 °FClear.6 mph35%30.09 "Hg10 mi
6:15 PM52 °FClear.6 mph32%30.10 "Hg10 mi
5:35 PM52 °FSunny.10 mph30%30.10 "Hg10 mi
5:15 PM52 °FSunny.9 mph30%30.10 "Hg10 mi
4:35 PM54 °FSunny.12 mph28%30.11 "Hg10 mi
4:15 PM54 °FSunny.13 mph28%30.11 "Hg10 mi
3:35 PM54 °FSunny.12 mph28%30.13 "Hg10 mi
3:15 PM54 °FSunny.9 mph30%30.13 "Hg10 mi
2:35 PM52 °FSunny.7 mph30%30.15 "Hg10 mi
2:15 PM52 °FSunny.10 mph30%30.17 "Hg10 mi
1:35 PM52 °FSunny.12 mph32%30.21 "Hg10 mi
1:15 PM52 °FSunny.12 mph30%30.22 "Hg10 mi
12:35 PM50 °FSunny.12 mph32%30.25 "Hg10 mi
12:15 PM48 °FSunny.9 mph34%30.26 "Hg10 mi
11:35 AM45 °FSunny.6 mph42%30.30 "Hg10 mi
11:15 AM43 °FSunny.5 mph46%30.30 "Hg10 mi
10:35 AM41 °FSunny.8 mph49%30.31 "Hg10 mi
10:15 AM39 °FSunny.7 mph56%30.31 "Hg10 mi
9:35 AM37 °FSunny.7 mph60%30.31 "Hg10 mi
9:15 AM36 °FSunny.3 mph70%30.31 "Hg10 mi
8:35 AM30 °FSunny.No wind86%30.30 "Hg10 mi
8:15 AM30 °FSunny.No wind80%30.31 "Hg10 mi
Weather by CustomWeather, © 2014

See weather overviewHow to use our weather pages